Regional Weather Roundup
Issued by NWS

Home | Current Version | Previous Version | Graphics & Text | Print | Product List | Glossary On
Versions: 1 2 3 4 5 6 7 8 9 10 11 12 13 14 15 16 17 18 19 20 21 22 23 24 25 26 27
000
ASUS45 KSLC 280110
RWRUT

UTAH REGIONAL WEATHER ROUNDUP
NATIONAL WEATHER SERVICE SALT LAKE CITY UT
700 PM MDT SAT AUG 27 2016

UTZ001>011-023>025-280200-

NORTHERN UTAH

CITY           SKY/WX    TMP DP  RH WIND       PRES   REMARKS
BRIGHAM CITY     N/A     84  17   8 S7        29.99F
HILL AFB       SUNNY     82  23  11 W7        30.03F
LOGAN          SUNNY     82  25  12 S8        30.00S
OGDEN          SUNNY     82  25  12 SW6       30.00F
PROVO AIRPORT  MOSUNNY   82  37  20 MISG      30.00F
SALT LAKE CITY MOSUNNY   86  29  12 N12       29.99S
VERNAL         CLOUDY    77  40  26 N5        30.07S
WENDOVER       SUNNY     84  27  12 S13       29.98S
HEBER CITY     SUNNY     81  25  12 W7        30.06S
WEST JORDAN    SUNNY     82  33  16 NW12      30.03S

$$

UTZ012>022-026-027-280200-

SOUTHERN/CENTRAL UTAH

CITY           SKY/WX    TMP DP  RH WIND       PRES   REMARKS
BLANDING       MOCLDY    68  44  42 S8        30.25S
BRYCE CANYON   CLOUDY    57  45  64 SE3       30.27F
CEDAR CITY     CLOUDY    64  48  56 S13       30.15F
MILFORD        PTSUNNY   73  43  33 S16       30.09S
MOAB/CYNLANDS  MOCLDY    79  40  24 CALM      30.05S
PRICE          MOSUNNY   73  39  29 SE10      30.13S
ST GEORGE      CLEAR     75  52  43 SE3       30.05F

$$

REGIONAL REPORTS     COLORADO/ARIZONA

CITY           SKY/WX    TMP DP  RH WIND       PRES   REMARKS
CRAIG, CO      CLOUDY    76  32  20 SW12      30.13S
GRAND JUNCTION PTCLDY    72  46  39 SE14      30.10S
RIFLE          CLOUDY    73  46  38 W9        30.12S
MONTROSE       CLOUDY    66  47  50 S12       30.21F
CORTEZ         CLOUDY    67  50  54 SW9       30.19F
PAGE, AZ       MOSUNNY   72  51  47 NW6       30.09F
GRAND CANYON   CLOUDY    60  48  64 CALM      30.22F
KINGMAN        CLOUDY    76  55  48 SE3       30.04F
FLAGSTAFF      MOSUNNY   62  42  47 SW13      30.22F

$$

REGIONAL REPORTS    NEVADA/IDAHO/WYOMING

CITY           SKY/WX    TMP DP  RH WIND       PRES   REMARKS
LAS VEGAS, NV  PTSUNNY   87  45  23 NE12      29.92S
ELY            SUNNY     81  16   9 W5G17     30.10S
ELKO           SUNNY     85  13   7 W12       30.03S
POCATELLO, ID  CLOUDY    80  32  17 W14       29.98F
BURLEY         MOSUNNY   77  44  30 VRB3      29.95F
EVANSTON, WY   SUNNY     72  20  14 W13       30.18S
ROCK SPRINGS   CLEAR     76  18  11 W14       30.12S

$$




USA.gov is the U.S. government's official web portal to all federal, state and local government web resources and services.